NOAA 16 DEB

Satellite information

Favourite Embed

Satellite Type and Status

DEBRISIN ORBIT

Key statistics

Satellite NOAA 16 DEB at a glance.

Uptime

9119

Days in orbit

Revolutions

≈ 14.5

Per day

Orbit

SSO

Sun Synchronous Orbit

Inclination

99.0

Latest

Satellite identification and parameters

Extended collection of information and parameters for NOAA 16 DEB.

Object identification

Identified? True

Debris? True

Object name: NOAA 16 DEB

International designator: 2000-055L

Object number (NORAD): 41053

Object ID (CCSDS): 41053

Country: UNITED STATES OF AMERICA (US)

Current information (Y/N): Y

RCS size: SMALL

Orbital parameters

Period: 99.364 minutes

Inclination: 99.0092 deg

SMA: 7106.342 km

Apoapsis: 745.594 km

Periapsis: 710.82 km

RAAN: 89.1785 deg

Eccentricy: 0.00244671

Argument of periapsis: 239.6433 deg

Mean anomaly: 120.2339 deg

Mean motion: 14.49217639 rev/day

Mean motion (dot): 0.00007617 rev/day2

B* drag term: 0.0020032639 1/REarth

Two-line elements (TLE)

Creation date: Sept. 8, 2025, 9:49 a.m.

Reference frame: TEME

Reference center: EARTH

Epoch: Sept. 8, 2025, 2:17 a.m. UTC

TLE line 0: 0 NOAA 16 DEB

TLE line 1: 1 41053U 00055L 25251.09524539 .00007617 00000-0 20033-2 0 9996

TLE line 2: 2 41053 99.0092 89.1785 0024467 239.6433 120.2339 14.49217639509421

Live tracking on map

Real-time ground track for satellite NOAA 16 DEB.

In-orbit conjunctions

A list of the most updated potential collisions computed for object NOAA 16 DEB.

Target Orbit TCA Probability of collision Miss distance Type
THORAD AGENA D DEB LEO 2025-08-07 13:23:24 0.0001348177 116.0 (m) DEBRIS
COSMOS 1452 LEO 2024-09-25 20:16:35 0.0005789371 449.0 (m) PAYLOAD
COSMOS 1818 COOLANT LEO 2024-08-29 15:00:57 0.00018931 128.0 (m) DEBRIS

Associated space launch

The NOAA K, L and M POES satellites begin the fifth generation of improved environmental monitoring in support of NOAA missions. The instrument payload has significant improvements and additions/deletions. The instrument changes have effected the spacecraft subsystems and data formats.

NOAA 16 DEB was lifted into orbit during the mission ‘Titan II SLV | NOAA 16’, on board a Titan II SLV space rocket.

The launch took place on Sept. 21, 2000, 10:22 a.m. from Space Launch Complex 4W.

For more information about the launch, click the button.

Launch to space Titan II SLV | NOAA 16
Titan II SLV | NOAA 16

Agency: N/A

Status: Launch Successful

Launch date: Sept. 21, 2000, 10:22 a.m. UTC

Rocket: Titan II SLV

Launch pad: Space Launch Complex 4W

Location: Vandenberg SFB, CA, USA

...

Latest news about this satellite

There are no fresh news available about this satellite. Check back as we update our databases every day.


Newsletter sign-up

Weekly statistics, charts and insights to help you stay on top of the space industry.